Location: Courth�zon
(44.0873°N, 4.8838°E)
Time: 07:51:47
(UTC+00:00)

Daily predictions for brighter satellites

Satellite Brightness Start Highest point End
(mag) Time Altitude Azimuth Time Altitude Azimuth Time Altitude Azimuth
USA 234 3.3 16:31:05 10° ESE 16:37:34 69° NE 16:44:03 10° NW
NOSS 3-1 (A) 4.2 16:31:12 10° NNW 16:38:31 57° NE 16:47:04 10° SE
Cosmos 1933 4.4 16:35:11 10° SSE 16:38:34 26° E 16:41:58 10° NNE
NOSS 3-1 (C) 4.2 16:32:24 10° NW 16:39:58 83° NE 16:48:48 10° SE
CZ-2C R/B 3.9 16:39:22 10° NE 16:43:00 19° E 16:46:36 10° SE
Cosmos 2084 3.9 16:39:11 10° NNW 16:43:16 41° NE 16:47:30 10° ESE
Meteor 2-19 Rocket 4.4 16:39:31 10° N 16:45:38 82° E 16:51:45 10° S
PSLV R/B 4.4 16:46:04 10° SE 16:49:20 31° ENE 16:52:39 10° N
COSMO-SKYMED 1 4.0 16:47:39 10° NE 16:50:41 18° E 16:53:43 10° SE
USA 276 2.0 16:51:48 10° WNW 16:54:55 64° NNE 16:58:01 10° ESE
CZ-2C R/B 3.3 16:50:17 10° S 16:55:14 69° WSW 17:00:02 10° NNW
ISS -2.3 16:57:24 10° NW 17:00:17 25° N 17:02:15 15° ENE
USA 306 4.5 16:57:15 10° WNW 17:00:42 23° N 17:03:48 12° NE
FengYun 1-2 T 4.3 16:55:35 10° SSE 17:01:11 86° WSW 17:06:47 10° NNW
Cosmos 2026 Rocket 4.2 16:55:31 10° N 17:01:25 46° ENE 17:07:13 10° SSE
Cosmos 1633 Rocket 4.5 17:00:22 10° NNE 17:03:16 17° ENE 17:06:09 10° ESE
Cosmos 540 Rocket 3.8 17:00:52 10° S 17:05:41 44° ESE 17:10:32 10° NNE
Okean O Rocket 2.6 17:04:10 10° ESE 17:07:50 26° ENE 17:11:31 10° N
Cosmos 1408 Rocket 4.5 17:04:50 10° NNW 17:09:05 52° W 17:13:19 10° S
Cosmos 1939 Rocket 3.1 17:05:51 10° S 17:09:58 75° W 17:14:05 10° NNW
Cosmos 468 Rocket 3.9 17:05:42 10° SSW 17:10:50 83° ESE 17:16:03 10° NNE
Cosmos 1898 Rocket 3.4 17:06:43 10° NNW 17:11:59 69° ENE 17:17:10 10° SSE
MOS 1-B Rocket 4.3 17:06:46 10° NNE 17:12:28 49° E 17:18:53 10° S
Cosmos 1656 4.1 17:07:06 10° NNW 17:12:37 68° WSW 17:18:09 10° SSE
Cosmos 2322 Rocket 4.1 17:13:04 10° NNE 17:14:20 11° NE 17:14:20 11° NE
Cosmos 1743 Rocket 3.6 17:11:41 10° N 17:16:02 84° W 17:20:20 10° S
Cosmos 1666 4.4 17:14:33 10° NNE 17:20:45 - SE 17:15:46 16° NE
Cosmos 1697 Rocket 2.6 17:14:04 10° NNW 17:19:42 71° ENE 17:25:17 10° SSE
Cosmos 2369 3.9 17:14:33 10° NNW 17:20:07 49° ENE 17:25:38 10° SE
Meteor 1-25 Rocket 4.2 17:14:55 10° N 17:20:31 85° E 17:26:07 10° S
Meteor 2-14 Rocket 4.4 17:14:34 10° N 17:20:37 59° ENE 17:26:35 10° SSE
Cosmos 1151 Rocket 3.8 17:18:52 10° SSE 17:22:37 30° E 17:24:43 20° NE
Cosmos 1980 Rocket 2.6 17:17:39 10° NNW 17:23:01 41° ENE 17:28:19 10° SE
H-2A R/B 2.0 17:19:58 10° SSE 17:25:08 68° ENE 17:30:11 10° N
Cosmos 1666 Rocket 4.1 17:23:21 10° N 17:27:27 35° ENE 17:31:30 10° SE
Cosmos 1812 3.3 17:25:23 10° SSE 17:28:54 35° E 17:30:15 26° NE
SMAP 3.8 17:24:26 10° S 17:29:00 55° W 17:33:35 10° NNW
ATLAS CENTAUR R/B 4.2 17:30:44 10° NNW 17:31:08 10° NNW 17:31:34 10° NNW
SL-16 R/B 3.7 17:27:35 10° N 17:30:49 17° NE 17:30:49 17° NE
SL-08 RB Rocket 4.4 17:27:31 10° SE 17:31:35 31° ENE 17:35:38 10° N
Cosmos 1328 Rocket 4.4 17:29:58 10° SSE 17:33:47 28° E 17:34:09 28° E
Cosmos 2082 Rocket 2.4 17:28:53 10° S 17:34:21 51° ESE 17:38:07 20° NE
Cosmos 1809 Rocket 4.4 17:28:35 10° N 17:34:43 89° E 17:40:47 10° S
COSMOS 2455 2.9 17:29:25 10° SSW 17:35:19 61° ESE 17:39:32 20° NE
ATLAS 5 CENTAUR R/B 3.3 17:32:43 10° NW 17:38:55 25° NNE 17:39:44 24° NE
SKYMED 2 3.6 17:35:28 15° NNE 17:39:02 58° E 17:43:18 10° S
CZ-4C R/B 3.2 17:32:38 10° NNW 17:39:27 46° NE 17:45:25 18° ESE
SL-24 R/B - RUBIN 2 3.8 17:36:25 10° NNW 17:40:48 46° NE 17:42:23 32° E
Meteor 2-21 Rocket 4.4 17:34:55 10° N 17:41:00 64° E 17:46:59 10° SSE
Cosmos 1782 2.7 17:37:37 10° S 17:41:37 89° W 17:45:35 10° N
ATLAS CENTAUR R/B 3.1 17:33:02 10° SW 17:43:05 67° NW 17:45:47 25° NE
EP 1 4.5 17:39:51 10° SW 17:43:21 85° SE 17:43:51 58° NE
NOSS 2-2 (C) 4.4 17:38:29 10° NNW 17:43:39 60° NE 17:50:52 10° SE
Cosmos 1602 4.2 17:40:16 10° NNW 17:44:05 61° W 17:47:53 10° S
Cosmos 2278 4.0 17:39:30 10° NNW 17:44:58 44° ENE 17:48:32 20° ESE
USA 267 4.0 17:42:43 17° NE 17:47:18 42° NNW 17:53:21 10° W
CZ-4 R/B 4.4 17:43:18 10° SSE 17:47:20 58° ENE 17:51:25 10° N
Cosmos 1763 Rocket 4.4 17:42:39 10° SW 17:47:29 45° WNW 17:52:24 10° N
COSMOS 2406 3.4 17:43:15 10° SSW 17:48:59 76° WNW 17:53:56 14° NNE
Cosmos 841 Rocket 3.4 17:46:42 10° SSW 17:51:53 88° ESE 17:55:39 19° NNE
Landsat 5 3.4 17:52:10 40° NE 17:53:21 57° ESE 17:57:17 10° S
Cosmos 1937 Rocket 3.8 17:49:44 10° NNW 17:55:03 71° WSW 18:00:20 10° S
Meteor 2-6 Rocket 4.3 17:52:42 10° S 17:58:20 53° E 18:01:30 25° NNE
Sich 1 3.6 17:55:37 10° NNW 17:59:50 57° W 18:04:02 10° S
SJ-11-01 4.2 17:55:35 10° SSE 18:00:20 86° ENE 18:05:07 10° NNW
Cosmos 1833 Rocket 3.5 17:55:28 10° SW 18:00:52 48° WNW 18:05:51 12° NNE
ARGOS 3.1 17:55:55 10° SSE 18:01:20 85° ENE 18:06:47 10° NNW
Lacrosse 5 rocket 3.1 18:00:32 10° NNW 18:02:30 19° N 18:02:30 19° N
USA 229 DEB 4.5 17:58:49 10° NW 18:06:04 59° WSW 18:13:44 10° SSE
USA 229 4.5 17:58:54 10° NW 18:06:11 60° WSW 18:13:50 10° SSE
Cosmos 2142 Rocket 4.4 18:04:03 10° S 18:10:11 85° W 18:16:27 10° N
Cosmos 372 Rocket 4.1 18:07:14 10° NNW 18:12:29 78° WSW 18:17:43 10° SSE
Meteor 1-10 Rocket 4.3 18:06:58 10° SSE 18:12:35 51° E 18:13:07 49° ENE
CZ-4B R/B 3.6 18:07:45 10° S 18:13:08 62° WSW 18:18:28 10° NNW
deb Chang Zheng 4 4.2 18:09:51 10° S 18:14:05 56° W 18:18:20 10° NNW
Spot 2 4.4 18:17:29 33° SSE 18:19:47 69° ENE 18:24:55 10° N
Feng Yun 1-1 Rocket 4.3 18:15:22 10° SSE 18:21:17 83° ENE 18:27:12 10° NNW
Cosmos 2279 Rocket 4.1 18:15:47 10° SSW 18:21:59 74° W 18:28:13 10° N
CZ-2C R/B 3.1 18:18:35 10° N 18:23:41 56° WNW 18:28:42 10° SSW
DMSP B5D2-2 4.2 18:24:39 56° SE 18:24:39 56° SE 18:29:09 10° S
NOAA 15 4.4 18:19:17 10° SSE 18:24:33 76° ENE 18:29:50 10° N
GEOS 3 Rocket 3.5 18:26:16 66° ESE 18:26:57 79° NE 18:32:11 10° NW
COSMO-SKYMED 1 3.7 18:24:05 17° N 18:27:03 43° WNW 18:31:09 10° SW
Cosmos 2266 Rocket 3.9 18:21:37 10° N 18:27:59 67° E 18:34:21 10° SSE
Cosmos 1570 Rocket 4.1 18:29:16 10° SSW 18:34:30 75° WNW 18:35:30 58° N
ISS -1.2 18:34:08 10° NW 18:35:15 19° NW 18:35:15 19° NW
Cosmos 1818 4.2 18:35:36 10° NNW 18:39:29 43° N 18:39:29 43° N
Cosmos 2360 Rocket 4.3 18:36:32 10° N 18:37:22 13° N 18:37:22 13° N
Cosmos 1633 Rocket 4.0 18:37:07 10° NNW 18:41:18 45° W 18:45:29 10° SSW
Okean O Rocket 3.3 18:40:01 10° SSW 18:44:01 33° W 18:48:05 10° NNW
Meteor 2-15 Rocket 4.3 18:38:46 10° S 18:44:53 82° E 18:44:57 82° E
Cosmos 1655 Rocket 4.1 18:47:54 10° N 18:54:18 76° W 19:00:39 10° S
Cosmos 2322 Rocket 4.0 18:54:19 10° NNW 18:56:10 20° N 18:56:10 20° N
Cosmos 1980 Rocket 3.8 19:01:55 10° NW 19:06:52 32° WSW 19:11:45 10° SSW
SL-16 R/B 3.8 19:10:27 10° NNW 19:12:42 25° NNW 19:12:42 25° NNW
Cosmos 2082 Rocket 3.9 19:13:54 10° WSW 19:18:43 28° NW 19:20:00 25° NNW
COSMOS 2455 4.4 19:16:31 10° WSW 19:21:40 29° NW 19:22:42 27° NNW
CZ-4C R/B 3.6 19:21:05 10° NW 19:28:20 54° WSW 19:30:43 42° SSW
